Location: Milton
(43.5183°N, 79.8775°W)
Time: 04:25:41
(UTC+00:00)

AO-27 - Visible Passes

Search period start: 21 March 2023 00:00
Search period end: 31 March 2023 00:00
Orbit: 785 x 796 km, 98.9° (Epoch: 20 March)

Date Brightness Start Highest point End Pass type
(mag) Time Alt. Az. Time Alt. Az. Time Alt. Az.
21 Mar 8.5 00:00:16 10° SE 00:04:46 31° ENE 00:09:19 10° N visible
21 Mar 9.1 01:39:25 10° SSW 01:44:08 35° W 01:48:55 10° NNW visible
22 Mar 8.0 01:09:35 10° S 01:14:43 65° WSW 01:19:55 10° NNW visible
23 Mar 7.6 00:40:17 10° SSE 00:45:26 70° ENE 00:50:38 10° N visible
23 Mar 10.3 02:22:25 10° SW 02:25:24 15° W 02:28:23 10° NW visible
24 Mar 8.2 00:11:29 10° SE 00:16:15 39° ENE 00:21:04 10° N visible
24 Mar 9.5 01:51:23 10° SSW 01:55:48 28° W 02:00:15 10° NW visible
25 Mar 8.4 01:21:16 10° S 01:26:19 51° W 01:31:25 10° NNW visible
26 Mar 7.6 00:51:47 10° SSE 00:56:58 87° ENE 01:02:14 10° NNW visible
26 Mar 10.5 02:35:15 10° WSW 02:37:07 12° W 02:38:59 10° WNW visible
27 Mar 7.9 00:22:47 10° SE 00:27:45 48° ENE 00:32:46 10° N visible
27 Mar 9.8 02:03:27 10° SW 02:07:27 22° W 02:11:30 10° NW visible
28 Mar 8.9 01:33:03 10° SSW 01:37:55 41° W 01:42:52 10° NNW visible
29 Mar 7.8 01:03:21 10° S 01:08:33 75° WSW 01:13:47 10° NNW visible
30 Mar 7.7 00:34:10 10° SSE 00:39:16 60° ENE 00:44:26 10° N visible
30 Mar 10.1 02:15:41 10° SW 02:19:08 18° W 02:22:37 10° NW visible
